JE2VQT13 Weather Reports


time (UTC)temp
C
wind
direction
speed
KPH
gust
KPH
rain 1hr
cm
rain 24hr
cm
rain mn
cm
humidity
%
barometer
mb
20260509161515 15 190 0.0 0.0 0.00 0.00 0.00 55 1018.4
20260509160015 15 190 0.0 0.0 0.00 0.00 0.00 56 1018.5
20260509154517 15 190 0.0 1.6 0.00 0.00 0.00 57 1018.5
20260509151515 16 190 0.0 0.0 0.00 0.00 0.00 57 1018.5
20260509144516 16 190 0.0 1.6 0.00 0.00 0.00 56 1018.7
20260509141515 16 190 0.0 1.6 0.00 0.00 0.00 55 1018.5
20260509140014 16 190 0.0 1.6 0.00 0.00 0.00 54 1018.5
20260509134515 16 190 0.0 1.6 0.00 0.00 0.00 54 1018.4
20260509133014 16 190 0.0 1.6 0.00 0.00 0.00 54 1018.3
20260509131514 16 190 0.0 4.8 0.00 0.00 0.00 55 1018.2
20260509130015 17 190 0.0 3.2 0.00 0.00 0.00 55 1018.1
20260509124514 17 190 0.0 3.2 0.00 0.00 0.00 54 1018.1
20260509123014 17 190 0.0 1.6 0.00 0.00 0.00 54 1018.1
20260509121513 17 190 0.0 3.2 0.00 0.00 0.00 55 1018.0
20260509120013 17 190 0.0 1.6 0.00 0.00 0.00 54 1017.9
20260509114515 17 190 0.0 3.2 0.00 0.00 0.00 54 1017.8
20260509113015 17 190 0.0 3.2 0.00 0.00 0.00 53 1017.6
20260509111513 17 190 0.0 4.8 0.00 0.00 0.00 53 1017.6
20260509110015 18 186 1.6 4.8 0.00 0.00 0.00 51 1017.1
20260509104515 18 191 0.0 4.8 0.00 0.00 0.00 50 1016.8
20260509103015 18 187 0.0 3.2 0.00 0.00 0.00 49 1016.7
20260509101513 18 190 0.0 4.8 0.00 0.00 0.00 48 1016.4
20260509100014 18 189 1.6 4.8 0.00 0.00 0.00 47 1016.1
20260509094513 19 190 0.0 4.8 0.00 0.00 0.00 46 1016.0
20260509091514 20 189 1.6 11.3 0.00 0.00 0.00 44 1015.4
20260509090014 20 186 1.6 8.0 0.00 0.00 0.00 44 1015.3
20260509084513 20 190 1.6 9.7 0.00 0.00 0.00 43 1015.2
20260509083014 21 181 1.6 11.3 0.00 0.00 0.00 41 1015.0
20260509074513 22 186 1.6 11.3 0.00 0.00 0.00 31 1014.4
20260509071513 22 189 0.0 9.7 0.00 0.00 0.00 31 1014.6
20260509070015 22 181 1.6 9.7 0.00 0.00 0.00 31 1014.4
20260509064513 23 189 0.0 4.8 0.00 0.00 0.00 30 1014.2
20260509063014 22 190 1.6 9.7 0.00 0.00 0.00 31 1013.9
20260509061513 22 185 0.0 9.7 0.00 0.00 0.00 31 1013.8
20260509060013 22 183 1.6 4.8 0.00 0.00 0.00 30 1013.7
20260509054513 23 168 1.6 4.8 0.00 0.00 0.00 32 1013.9
20260509053013 22 190 1.6 14.5 0.00 0.00 0.00 32 1014.0
20260509051515 22 171 1.6 11.3 0.00 0.00 0.00 32 1013.9
20260509050013 22 188 1.6 14.5 0.00 0.00 0.00 32 1014.4
20260509043014 22 190 1.6 14.5 0.00 0.00 0.00 33 1014.7
20260509041514 22 178 1.6 8.0 0.00 0.00 0.00 33 1014.8
20260509040013 22 191 1.6 9.7 0.00 0.00 0.00 34 1014.7
20260509034513 22 184 1.6 4.8 0.00 0.00 0.00 34 1014.9
20260509031513 21 110 1.6 4.8 0.00 0.00 0.00 35 1015.0
20260509030013 21 190 1.6 4.8 0.00 0.00 0.00 37 1015.1
20260509024513 21 176 1.6 11.3 0.00 0.00 0.00 39 1015.1
20260509020014 20 185 0.0 11.3 0.00 0.00 0.00 39 1015.4
20260509014513 20 154 1.6 11.3 0.00 0.00 0.00 41 1015.3
20260509013015 20 190 1.6 9.7 0.00 0.00 0.00 39 1015.6
20260509010013 19 185 1.6 4.8 0.00 0.00 0.00 41 1015.6
20260509004515 19 190 1.6 4.8 0.00 0.00 0.00 42 1015.6
20260509003013 19 190 1.6 4.8 0.00 0.00 0.00 43 1015.3
20260509001514 18 190 1.6 8.0 0.00 0.00 0.00 44 1015.3
20260509000013 18 189 1.6 4.8 0.00 0.00 0.00 45 1015.2
20260508233013 18 189 0.0 4.8 0.00 0.00 0.00 47 1015.0
20260508231514 18 188 1.6 4.8 0.00 0.00 0.00 47 1015.0
20260508230013 17 187 1.6 4.8 0.00 0.00 0.00 47 1014.8
20260508221513 17 190 0.0 4.8 0.00 0.00 0.00 52 1014.2
20260508220013 16 190 0.0 1.6 0.00 0.00 0.00 56 1014.0
20260508213013 15 190 0.0 3.2 0.00 0.00 0.00 60 1013.7
20260508211513 15 181 0.0 4.8 0.00 0.00 0.00 61 1013.4
20260508210013 14 191 0.0 3.2 0.00 0.00 0.00 61 1013.2
20260508204513 14 190 0.0 3.2 0.00 0.00 0.00 62 1012.7
20260508203013 14 189 0.0 3.2 0.00 0.00 0.00 61 1012.8
20260508201512 14 189 0.0 3.2 0.00 0.00 0.00 61 1012.8
20260508200012 14 190 1.6 4.8 0.00 0.00 0.00 61 1012.6
20260508193013 15 168 0.0 3.2 0.00 0.00 0.00 61 1012.3
20260508184513 15 183 1.6 9.7 0.00 0.00 0.00 62 1012.0
20260508183012 15 179 3.2 9.7 0.00 0.00 0.00 63 1011.8
20260508181512 15 190 1.6 4.8 0.00 0.00 0.00 62 1011.9
20260508180012 15 190 0.0 8.0 0.00 0.00 0.00 62 1011.7
20260508174513 15 184 1.6 4.8 0.00 0.00 0.00 60 1011.5
20260508173014 16 191 1.6 9.7 0.00 0.00 0.00 58 1011.4
20260508171513 16 177 0.0 4.8 0.00 0.00 0.00 57 1011.2
20260508170013 16 186 1.6 8.0 0.00 0.00 0.00 57 1011.4
20260508164514 16 188 0.0 4.8 0.00 0.00 0.00 55 1011.3